Location: *
(42.0175°N, 9.4056°E)
Time: 20:08:21
(UTC+00:00)

Cosmos 2297 Rocket - Pass Details

Date: 25 August 2019
Orbit: 841 x 842 km, 71.0° (Epoch: 13 October)

Event Time Altitude Azimuth Distance (km) Brightness Sun altitude
Exits shadow 23:40:03 19° 57° (ENE) 1,897 4.3 -37.3°
Drops below altitude 10° 23:41:56 10° 44° (NE) 2,467 5.1 -37.2°
Sets 23:44:37 0° 34° (NE) 3,407 6.1 -37.2°
